TimeEST,TemperatureF,Dew PointF,Humidity,Sea Level PressureIn,VisibilityMPH,Wind Direction,Wind SpeedMPH,Gust SpeedMPH,PrecipitationIn,Events,Conditions,WindDirDegrees,DateUTC
12:15 AM,41.0,39.2,93,30.24,10.0,Calm,Calm,-,N/A,,Clear,0,2013-01-06 05:15:00
12:35 AM,41.0,39.2,93,30.24,10.0,Calm,Calm,-,N/A,,Clear,0,2013-01-06 05:35:00
12:55 AM,41.0,39.2,93,30.24,10.0,Calm,Calm,-,N/A,,Clear,0,2013-01-06 05:55:00
1:35 AM,41.0,37.4,87,30.24,10.0,Calm,Calm,-,N/A,,Scattered Clouds,0,2013-01-06 06:35:00
1:55 AM,42.8,35.6,76,30.24,10.0,Calm,Calm,-,N/A,,Scattered Clouds,0,2013-01-06 06:55:00
2:15 AM,42.8,35.6,76,30.24,10.0,Calm,Calm,-,N/A,,Mostly Cloudy,0,2013-01-06 07:15:00
2:35 AM,42.8,35.6,76,30.23,10.0,Calm,Calm,-,N/A,,Overcast,0,2013-01-06 07:35:00
2:55 AM,44.6,35.6,71,30.24,10.0,West,3.5,-,N/A,,Overcast,260,2013-01-06 07:55:00
3:15 AM,42.8,35.6,76,30.23,10.0,Calm,Calm,-,N/A,,Overcast,0,2013-01-06 08:15:00
3:55 AM,42.8,35.6,76,30.22,10.0,Calm,Calm,-,N/A,,Mostly Cloudy,0,2013-01-06 08:55:00
4:15 AM,42.8,35.6,76,30.21,10.0,Calm,Calm,-,N/A,,Mostly Cloudy,0,2013-01-06 09:15:00
4:35 AM,42.8,35.6,76,30.20,10.0,Calm,Calm,-,N/A,,Mostly Cloudy,0,2013-01-06 09:35:00
4:55 AM,42.8,37.4,81,30.19,10.0,Calm,Calm,-,N/A,,Partly Cloudy,0,2013-01-06 09:55:00
5:15 AM,42.8,37.4,81,30.18,10.0,Calm,Calm,-,N/A,,Partly Cloudy,0,2013-01-06 10:15:00
5:55 AM,41.0,37.4,87,30.18,10.0,Calm,Calm,-,N/A,,Partly Cloudy,0,2013-01-06 10:55:00
6:15 AM,41.0,39.2,93,30.18,10.0,Calm,Calm,-,N/A,,Scattered Clouds,0,2013-01-06 11:15:00
6:55 AM,41.0,39.2,93,30.18,10.0,Calm,Calm,-,N/A,,Mostly Cloudy,0,2013-01-06 11:55:00
7:15 AM,41.0,41.0,100,30.18,10.0,Calm,Calm,-,N/A,,Scattered Clouds,0,2013-01-06 12:15:00
7:35 AM,41.0,39.2,93,30.19,10.0,Calm,Calm,-,N/A,,Scattered Clouds,0,2013-01-06 12:35:00
7:55 AM,42.8,39.2,87,30.20,10.0,Calm,Calm,-,N/A,,Overcast,0,2013-01-06 12:55:00
8:15 AM,44.6,37.4,76,30.20,10.0,Calm,Calm,-,N/A,,Overcast,0,2013-01-06 13:15:00
8:35 AM,44.6,37.4,76,30.20,10.0,Calm,Calm,-,N/A,,Mostly Cloudy,0,2013-01-06 13:35:00
8:55 AM,44.6,37.4,76,30.20,10.0,Calm,Calm,-,N/A,,Scattered Clouds,0,2013-01-06 13:55:00
9:15 AM,44.6,39.2,81,30.20,9.0,Calm,Calm,-,N/A,,Mostly Cloudy,0,2013-01-06 14:15:00
9:35 AM,44.6,37.4,76,30.20,3.0,Calm,Calm,-,N/A,,Haze,0,2013-01-06 14:35:00
9:55 AM,44.6,37.4,76,30.21,10.0,Calm,Calm,-,N/A,,Overcast,0,2013-01-06 14:55:00
10:15 AM,44.6,39.2,81,30.21,8.0,Calm,Calm,-,N/A,Rain,Light Rain,0,2013-01-06 15:15:00
10:35 AM,44.6,41.0,87,30.20,10.0,Calm,Calm,-,N/A,,Mostly Cloudy,0,2013-01-06 15:35:00
10:55 AM,44.6,41.0,87,30.19,10.0,Calm,Calm,-,N/A,,Mostly Cloudy,0,2013-01-06 15:55:00
11:15 AM,46.4,39.2,76,30.18,10.0,SSW,4.6,-,N/A,,Overcast,200,2013-01-06 16:15:00
11:35 AM,46.4,39.2,76,30.17,10.0,SSW,3.5,-,N/A,,Mostly Cloudy,210,2013-01-06 16:35:00
11:55 AM,48.2,39.2,71,30.16,10.0,SW,5.8,-,N/A,,Partly Cloudy,230,2013-01-06 16:55:00
12:15 PM,48.2,39.2,71,30.15,10.0,SW,4.6,-,0.01,,Mostly Cloudy,230,2013-01-06 17:15:00
12:35 PM,48.2,39.2,71,30.14,10.0,WSW,6.9,-,0.01,,Scattered Clouds,240,2013-01-06 17:35:00
12:55 PM,48.2,39.2,71,30.13,10.0,WSW,5.8,-,0.01,,Partly Cloudy,240,2013-01-06 17:55:00
1:15 PM,50.0,39.2,66,30.11,10.0,Calm,Calm,-,N/A,,Partly Cloudy,0,2013-01-06 18:15:00
1:35 PM,50.0,39.2,66,30.10,10.0,South,3.5,-,N/A,,Clear,170,2013-01-06 18:35:00
1:55 PM,50.0,41.0,71,30.09,10.0,SSW,3.5,-,N/A,,Clear,210,2013-01-06 18:55:00
2:15 PM,50.0,41.0,71,30.09,10.0,Calm,Calm,-,N/A,Rain,Light Rain,0,2013-01-06 19:15:00
2:35 PM,50.0,41.0,71,30.08,10.0,Calm,Calm,-,N/A,,Partly Cloudy,0,2013-01-06 19:35:00
2:55 PM,50.0,41.0,71,30.08,10.0,Calm,Calm,-,N/A,,Partly Cloudy,0,2013-01-06 19:55:00
3:15 PM,50.0,42.8,76,30.08,10.0,Calm,Calm,-,N/A,,Clear,0,2013-01-06 20:15:00
3:35 PM,50.0,42.8,76,30.08,10.0,Calm,Calm,-,N/A,,Partly Cloudy,0,2013-01-06 20:35:00
3:55 PM,50.0,42.8,76,30.07,10.0,Calm,Calm,-,N/A,,Scattered Clouds,0,2013-01-06 20:55:00
4:15 PM,50.0,44.6,82,30.07,10.0,Calm,Calm,-,N/A,,Partly Cloudy,0,2013-01-06 21:15:00
4:35 PM,50.0,44.6,82,30.08,10.0,WSW,4.6,-,N/A,,Clear,240,2013-01-06 21:35:00
4:55 PM,50.0,44.6,82,30.07,10.0,Calm,Calm,-,N/A,,Clear,0,2013-01-06 21:55:00
5:15 PM,50.0,46.4,87,30.06,10.0,Calm,Calm,-,N/A,,Clear,0,2013-01-06 22:15:00
5:35 PM,48.2,44.6,87,30.07,10.0,Calm,Calm,-,N/A,,Clear,0,2013-01-06 22:35:00
5:55 PM,46.4,46.4,100,30.09,10.0,Calm,Calm,-,N/A,,Clear,0,2013-01-06 22:55:00
6:15 PM,44.6,44.6,100,30.10,10.0,Calm,Calm,-,N/A,,Clear,0,2013-01-06 23:15:00
6:35 PM,42.8,42.8,100,30.10,10.0,Calm,Calm,-,N/A,,Clear,0,2013-01-06 23:35:00
6:55 PM,41.0,41.0,100,30.10,10.0,Calm,Calm,-,N/A,,Clear,0,2013-01-06 23:55:00
7:15 PM,39.2,39.2,100,30.10,1.2,Calm,Calm,-,N/A,,Clear,0,2013-01-07 00:15:00
7:55 PM,39.2,39.2,100,30.12,10.0,Calm,Calm,-,N/A,,Clear,0,2013-01-07 00:55:00
8:15 PM,37.4,37.4,100,30.12,10.0,Calm,Calm,-,N/A,,Clear,0,2013-01-07 01:15:00
8:35 PM,37.4,37.4,100,30.13,10.0,Calm,Calm,-,N/A,,Clear,0,2013-01-07 01:35:00
8:55 PM,37.4,37.4,100,30.13,10.0,Calm,Calm,-,N/A,,Clear,0,2013-01-07 01:55:00
9:15 PM,35.6,35.6,100,30.13,10.0,Calm,Calm,-,N/A,,Clear,0,2013-01-07 02:15:00
9:35 PM,35.6,35.6,100,30.14,1.2,Calm,Calm,-,N/A,,Clear,0,2013-01-07 02:35:00
10:15 PM,35.6,35.6,100,30.17,10.0,WNW,3.5,-,N/A,,Scattered Clouds,300,2013-01-07 03:15:00
10:35 PM,39.2,39.2,100,30.18,10.0,North,8.1,-,N/A,,Partly Cloudy,350,2013-01-07 03:35:00
10:55 PM,41.0,39.2,93,30.18,10.0,North,6.9,-,N/A,,Clear,10,2013-01-07 03:55:00
11:15 PM,39.2,39.2,100,30.19,10.0,NNE,5.8,-,N/A,,Clear,30,2013-01-07 04:15:00
11:35 PM,39.2,39.2,100,30.20,10.0,North,4.6,-,N/A,,Clear,10,2013-01-07 04:35:00
11:55 PM,37.4,37.4,100,30.21,10.0,Calm,Calm,-,N/A,,Clear,0,2013-01-07 04:55:00